KJ5MTR Weather Reports


time (UTC)temp
C
wind
direction
speed
KPH
gust
KPH
rain 1hr
cm
rain 24hr
cm
rain mn
cm
humidity
%
barometer
mb
20260510022516 26 0.0 0.0 0.00 0.00 0.00 76 1009.2
20260510021536 26 0.0 0.0 0.00 0.00 0.00 75 1009.0
20260510020516 26 0.0 0.0 0.00 0.00 0.00 74 1008.9
20260510015516 26 0.0 0.0 0.00 0.00 0.00 72 1008.6
20260510014516 26 0.0 0.0 0.00 0.00 0.00 71 1008.5
20260510013516 27 0.0 0.0 0.00 0.00 0.00 68 1008.5
20260510012516 27 0.0 0.0 0.00 0.00 0.00 66 1008.4
20260510011516 28 0.0 0.0 0.00 0.00 0.00 65 1008.3
20260510010516 28 0.0 0.0 0.00 0.00 0.00 63 1008.3
20260510005516 28 0.0 0.0 0.00 0.00 0.00 62 1008.3
20260510004516 29 0.0 0.0 0.00 0.00 0.00 60 1008.2
20260510003516 30 0.0 0.0 0.00 0.00 0.00 59 1008.1
20260510002516 30 0.0 0.0 0.00 0.00 0.00 57 1008.1
20260510001516 31 0.0 1.6 0.00 0.00 0.00 55 1008.0
20260510000516 31 0.0 0.0 0.00 0.00 0.00 54 1008.0
20260509235516 32 0.0 0.0 0.00 0.00 0.00 54 1007.9
20260509234516 31 0.0 0.0 0.00 0.00 0.00 55 1007.7
20260509233516 32 0.0 0.0 0.00 0.00 0.00 55 1007.7
20260509232515 32 0.0 0.0 0.00 0.00 0.00 52 1007.8
20260509231516 32 0.0 0.0 0.00 0.00 0.00 52 1007.7
20260509230515 32 0.0 0.0 0.00 0.00 0.00 52 1007.8
20260509225516 32 0.0 0.0 0.00 0.00 0.00 51 1007.7
20260509224516 32 0.0 1.6 0.00 0.00 0.00 52 1007.9
20260509223516 32 0.0 0.0 0.00 0.00 0.00 52 1007.8
20260509222535 32 0.0 0.0 0.00 0.00 0.00 52 1007.8
20260509221516 32 0.0 0.0 0.00 0.00 0.00 52 1007.7
20260509220515 31 0.0 1.6 0.00 0.00 0.00 52 1007.7
20260509215516 32 0.0 0.0 0.00 0.00 0.00 52 1007.8
20260509214516 32 0.0 1.6 0.00 0.00 0.00 51 1007.9
20260509213516 32 0.0 1.6 0.00 0.00 0.00 50 1008.0
20260509212516 32 0.0 0.0 0.00 0.00 0.00 52 1008.2
20260509211536 32 0.0 0.0 0.00 0.00 0.00 49 1008.2
20260509210536 32 0.0 0.0 0.00 0.00 0.00 49 1008.4
20260509205515 32 0.0 0.0 0.00 0.00 0.00 49 1008.5
20260509204516 32 0.0 0.0 0.00 0.00 0.00 49 1008.6
20260509203516 31 0.0 0.0 0.00 0.00 0.00 44 1008.7
20260509202515 30 0.0 0.0 0.00 0.00 0.00 44 1008.7
20260509201515 28 0.0 1.6 0.00 0.00 0.00 51 1009.1
20260509200516 27 0.0 12.9 0.00 0.00 0.00 56 1009.5
20260509195515 27 0.0 9.7 0.00 0.00 0.00 57 1009.9
20260509194515 28 0.0 8.0 0.00 0.00 0.00 50 1010.2
20260509193535 30 0.0 1.6 0.00 0.00 0.00 56 1009.8
20260509192535 32 0.0 0.0 0.00 0.00 0.00 59 1009.8
20260509191515 31 0.0 3.2 0.00 0.00 0.00 62 1009.4
20260509190515 31 0.0 9.7 0.00 0.00 0.00 63 1009.4
20260509185515 31 0.0 11.3 0.00 0.00 0.00 64 1009.4
20260509184517 32 0.0 0.0 0.00 0.00 0.00 59 1009.7
20260509183517 32 0.0 1.6 0.00 0.00 0.00 60 1009.9
20260509182518 32 0.0 0.0 0.00 0.00 0.00 60 1010.0
20260509181516 32 0.0 1.6 0.00 0.00 0.00 60 1010.2
20260509180517 31 0.0 1.6 0.00 0.00 0.00 63 1010.4
20260509175517 31 0.0 0.0 0.00 0.00 0.00 61 1010.3
20260509174517 31 0.0 0.0 0.00 0.00 0.00 65 1010.5
20260509173517 31 0.0 0.0 0.00 0.00 0.00 65 1010.4
20260509172517 31 0.0 0.0 0.00 0.00 0.00 65 1010.7
20260509171517 30 0.0 0.0 0.00 0.00 0.00 69 1010.7
20260509170517 30 0.0 0.0 0.00 0.00 0.00 67 1010.9
20260509165517 30 0.0 0.0 0.00 0.00 0.00 67 1010.9
20260509164517 30 0.0 0.0 0.00 0.00 0.00 66 1010.9
20260509163517 30 0.0 0.0 0.00 0.00 0.00 68 1010.9
20260509162517 30 0.0 0.0 0.00 0.00 0.00 70 1011.2
20260509161517 29 0.0 0.0 0.00 0.00 0.00 73 1011.1
20260509160517 28 0.0 1.6 0.00 0.00 0.00 74 1010.9
20260509155537 28 0.0 1.6 0.00 0.00 0.00 76 1010.8
20260509154537 27 0.0 1.6 0.00 0.00 0.00 79 1010.9
20260509153537 27 0.0 8.0 0.00 0.00 0.00 79 1010.7
20260509152517 26 0.0 9.7 0.00 0.00 0.00 81 1010.7
20260509151517 26 0.0 1.6 0.00 0.00 0.00 84 1010.3
20260509150517 25 0.0 8.0 0.00 0.00 0.00 86 1010.3
20260509145517 25 0.0 0.0 0.00 0.00 0.00 86 1010.4
20260509144517 26 0.0 1.6 0.00 0.00 0.00 85 1010.5
20260509143537 26 0.0 4.8 0.00 0.00 0.00 83 1010.3
20260509142517 26 0.0 0.0 0.00 0.00 0.00 81 1010.2
20260509141517 26 0.0 3.2 0.00 0.00 0.00 82 1010.0
20260509140537 26 0.0 1.6 0.00 0.00 0.00 85 1009.8
20260509135517 26 0.0 0.0 0.00 0.00 0.00 87 1009.6
20260509134517 25 0.0 0.0 0.00 0.00 0.00 90 1010.0
20260509133517 23 0.0 0.0 0.00 0.00 0.00 93 1010.0
20260509132517 23 0.0 0.0 0.00 0.00 0.00 94 1010.0
20260509131557 22 0.0 0.0 0.00 0.00 0.00 94 1010.2
20260509130517 22 0.0 0.0 0.00 0.00 0.00 94 1010.4
20260509125517 22 0.0 0.0 0.00 0.00 0.00 94 1010.5
20260509124557 22 0.0 0.0 0.00 0.00 0.00 94 1010.4
20260509123517 22 0.0 0.0 0.00 0.00 0.00 94 1010.3
20260509122517 21 0.0 0.0 0.00 0.00 0.00 94 1010.2
20260509121517 21 0.0 0.0 0.00 0.00 0.00 94 1010.0
20260509120517 21 0.0 0.0 0.00 0.00 0.00 94 1010.0
20260509115517 22 0.0 0.0 0.00 0.00 0.00 94 1010.2
20260509114517 22 0.0 0.0 0.00 0.00 0.00 94 1010.6
20260509113516 22 0.0 0.0 0.00 0.00 0.00 94 1011.1
20260509112517 22 0.0 0.0 0.00 0.00 0.00 94 1011.3
20260509111517 22 0.0 0.0 0.00 0.00 0.00 94 1011.5
20260509110537 22 0.0 0.0 0.00 0.00 0.00 94 1011.5
20260509105516 22 0.0 0.0 0.00 0.00 0.00 94 1011.5
20260509104537 22 0.0 0.0 0.00 0.00 0.00 94 1011.4
20260509103516 22 0.0 0.0 0.00 0.00 0.00 94 1011.6
20260509102517 22 0.0 0.0 0.00 0.00 0.00 94 1011.5
20260509101516 22 0.0 0.0 0.00 0.00 0.00 94 1011.4
20260509100517 22 0.0 0.0 0.00 0.00 0.00 94 1011.1
20260509095536 22 0.0 0.0 0.00 0.00 0.00 94 1010.7
20260509094517 22 0.0 0.0 0.00 0.00 0.00 94 1010.4
20260509093517 22 0.0 0.0 0.00 0.00 0.00 94 1010.1
20260509092516 22 0.0 0.0 0.00 0.00 0.00 94 1010.0
20260509091516 22 0.0 0.0 0.00 0.00 0.00 94 1009.9
20260509090517 22 0.0 0.0 0.00 0.00 0.00 94 1010.0
20260509085516 22 0.0 0.0 0.00 0.00 0.00 94 1010.0
20260509084516 22 0.0 0.0 0.00 0.00 0.00 94 1010.3
20260509083516 22 0.0 0.0 0.00 0.00 0.00 94 1010.5
20260509082518 22 0.0 0.0 0.00 0.00 0.00 94 1010.6
20260509081516 22 0.0 0.0 0.00 0.00 0.00 94 1010.3
20260509080516 22 0.0 0.0 0.00 0.00 0.00 94 1010.5
20260509075516 22 0.0 0.0 0.00 0.00 0.00 94 1010.7
20260509074516 22 0.0 0.0 0.00 0.00 0.00 94 1010.6
20260509073636 22 0.0 0.0 0.00 0.00 0.00 93 1010.9
20260509072516 22 0.0 0.0 0.00 0.00 0.00 93 1010.9
20260509071516 22 0.0 0.0 0.00 0.00 0.00 93 1011.0
20260509070536 22 0.0 0.0 0.00 0.00 0.00 93 1011.1
20260509065536 22 0.0 0.0 0.00 0.00 0.00 93 1010.8
20260509064516 22 0.0 0.0 0.00 0.00 0.00 93 1010.7
20260509063516 22 0.0 0.0 0.00 0.00 0.00 93 1010.9
20260509062516 22 0.0 0.0 0.00 0.00 0.00 93 1010.8
20260509061516 22 0.0 0.0 0.00 0.00 0.00 92 1010.6
20260509060516 22 0.0 0.0 0.00 0.00 0.00 92 1010.4
20260509055516 22 0.0 1.6 0.00 0.00 0.00 92 1010.4
20260509054516 22 0.0 0.0 0.00 0.00 0.00 92 1010.3
20260509053516 22 0.0 0.0 0.00 0.00 0.00 91 1009.8
20260509052516 22 0.0 0.0 0.00 0.00 0.00 91 1009.5
20260509051516 22 0.0 0.0 0.00 0.00 0.00 91 1009.4
20260509050516 22 0.0 0.0 0.00 0.00 0.00 91 1009.3
20260509045516 23 0.0 0.0 0.00 0.00 0.00 90 1009.5
20260509044516 23 0.0 0.0 0.00 0.00 0.00 90 1009.5
20260509043516 23 0.0 0.0 0.00 0.00 0.00 90 1009.7
20260509042516 23 0.0 0.0 0.00 0.00 0.00 89 1009.7
20260509041516 23 0.0 0.0 0.00 0.00 0.00 89 1010.0
20260509040516 23 0.0 0.0 0.00 0.00 0.00 89 1010.0
20260509035516 23 0.0 0.0 0.00 0.00 0.00 89 1010.0
20260509034516 23 0.0 0.0 0.00 0.00 0.00 90 1009.6
20260509033556 22 0.0 0.0 0.00 0.00 0.00 90 1009.5
20260509032516 22 0.0 0.0 0.00 0.00 0.00 91 1009.4
20260509031516 22 0.0 0.0 0.00 0.00 0.00 90 1009.3
20260509030516 22 0.0 0.0 0.00 0.00 0.00 89 1009.3
20260509025536 22 0.0 0.0 0.00 0.00 0.00 88 1009.3
20260509024516 23 0.0 0.0 0.00 0.00 0.00 88 1009.3
20260509023536 23 0.0 0.0 0.00 0.00 0.00 86 1009.2